Flag for Norway Weather past 2 weeks in Tananger, Norway

Now
57 °F

Light rain. Broken clouds.


Feels Like: 54 °F
Forecast: 51 / 58 °F
Wind: 14 mph from South

Location: Stavanger / Sola

Current Time: Aug 1, 2015 at 12:44:28 PM

Latest Report: Aug 1, 2015 at 11:50 AM


Visibility: N/A

Pressure: 29.92 "Hg

Humidity: 82%

Dew point: 52 °F

Location of TanangerLocation

Historic Weather in Tananger — Graph

°F

Tananger temperature yesterday

Maximum temperature yesterday: 57 °F (at 1:50 PM)
Minimum temperature yesterday: 50 °F (at 4:50 AM)
Average temperature yesterday: 54 °F

Past Weeks' High & Low Weather Summary

 TemperatureHumidityPressure
High70 °F (Jul 17, 1:50 PM)100% (Jul 18, 6:20 AM)29.98 "Hg (Jul 18, 6:20 AM)
Low48 °F (Jul 27, 5:50 AM)37% (Jul 17, 5:50 PM)29.39 "Hg (Jul 29, 9:20 AM)
Average57 °F80%29.70 "Hg
* Reported Jul 17 11:20 AM — Aug 1 11:20 AM, Tananger, Weather by CustomWeather, © 2015

Note: Actual official high and low records may vary slightly from our data, if they occured in-between our weather recording intervals... More about our weather records

Advertising

Tananger weather history for previous 24 hours

 ConditionsComfort  
Time TempWeatherWind HumidityBarometerVisibility
11:20 AM
Sat, Aug 1
59 °FLight rain. Broken clouds.15 mph72%29.92 "HgN/A
10:50 AM59 °FBroken clouds.13 mph72%29.92 "HgN/A
10:20 AM57 °FPartly sunny.13 mph77%29.92 "HgN/A
9:50 AM57 °FBroken clouds.9 mph82%29.92 "HgN/A
9:20 AM55 °FSprinkles. Broken clouds.10 mph88%29.92 "HgN/A
8:50 AM55 °FPartly sunny.7 mph82%29.92 "HgN/A
8:20 AM55 °FBroken clouds.7 mph82%29.92 "HgN/A
7:50 AM55 °FPartly sunny.7 mph77%29.92 "HgN/A
7:20 AM54 °FBroken clouds.6 mph77%29.92 "HgN/A
6:50 AM54 °FBroken clouds.7 mph77%29.92 "HgN/A
6:20 AM52 °FPartly cloudy.7 mph77%29.92 "HgN/A
5:50 AM52 °FPassing clouds.8 mph77%29.95 "HgN/A
4:50 AM52 °FPassing clouds.6 mph77%29.95 "HgN/A
3:50 AM52 °FLight rain. Partly cloudy.6 mph77%29.95 "HgN/A
2:50 AM50 °FPassing clouds.6 mph82%29.95 "HgN/A
1:50 AM48 °FPartly cloudy.3 mph87%29.98 "HgN/A
12:50 AM50 °FPartly cloudy.3 mph82%29.98 "HgN/A
12:20 AM52 °FPassing clouds.3 mph77%29.98 "HgN/A
11:50 PM
Fri, Jul 31
52 °FPartly cloudy.3 mph77%29.98 "HgN/A
11:20 PM52 °FPassing clouds.3 mph77%29.98 "HgN/A
10:50 PM52 °FScattered clouds.2 mph77%29.98 "HgN/A
10:20 PM52 °FScattered clouds.1 mph72%29.98 "HgN/A
9:50 PM54 °FScattered clouds.2 mph67%29.98 "HgN/A
9:20 PM54 °FScattered clouds.3 mph72%29.98 "HgN/A
8:50 PM54 °FScattered clouds.6 mph72%29.98 "HgN/A
8:20 PM55 °FScattered clouds.7 mph67%29.98 "HgN/A
7:50 PM55 °FScattered clouds.9 mph67%29.98 "HgN/A
7:20 PM55 °FScattered clouds.8 mph67%29.98 "HgN/A
6:50 PM57 °FScattered clouds.9 mph63%29.98 "HgN/A
6:20 PM55 °FScattered clouds.10 mph67%29.98 "HgN/A
5:50 PM55 °FScattered clouds.12 mph67%29.98 "HgN/A
5:20 PM55 °FScattered clouds.14 mph67%29.98 "HgN/A
4:50 PM57 °FScattered clouds.13 mph72%29.98 "HgN/A
4:20 PM57 °FScattered clouds.12 mph67%29.98 "HgN/A
3:50 PM57 °FScattered clouds.14 mph67%29.98 "HgN/A
3:20 PM57 °FScattered clouds.15 mph67%29.98 "HgN/A
2:50 PM57 °FScattered clouds.15 mph67%29.95 "HgN/A
2:20 PM57 °FPartly sunny.14 mph63%29.95 "HgN/A
1:50 PM57 °FPartly sunny.15 mph63%29.95 "HgN/A
1:20 PM55 °FPartly sunny.15 mph67%29.95 "HgN/A
12:50 PM55 °FPartly sunny.15 mph67%29.95 "HgN/A
12:20 PM55 °FPartly sunny.14 mph72%29.95 "HgN/A
Weather by CustomWeather, © 2015

See weather overviewHow to use our weather pages